Time,TemperatureF,DewpointF,PressureIn,WindDirection,WindDirectionDegrees,WindSpeedMPH,WindSpeedGustMPH,Humidity,HourlyPrecipIn,Conditions,Clouds,dailyrainin,SoftwareType,DateUTC
2013-02-01 00:05:00,27.3,11.5,29.88,WSW,247,2.0,7.0,51,0.00,,,-99.99,WeatherLink 5.4,2013-02-01 05:05:00,
2013-02-01 00:15:00,27.2,11.9,29.88,West,270,0.0,5.0,52,0.00,,,-99.99,WeatherLink 5.4,2013-02-01 05:15:00,
2013-02-01 00:20:00,27.2,11.9,29.88,West,270,0.0,5.0,52,0.00,,,-99.99,WeatherLink 5.4,2013-02-01 05:20:00,
2013-02-01 00:30:00,26.9,12.0,29.87,North,-999,0.0,0.0,53,0.00,,,-99.99,WeatherLink 5.4,2013-02-01 05:30:00,
2013-02-01 00:35:00,26.9,12.0,29.87,North,-999,0.0,0.0,53,0.00,,,-99.99,WeatherLink 5.4,2013-02-01 05:35:00,
2013-02-01 00:45:00,26.3,12.3,29.86,North,-999,0.0,0.0,55,0.00,,,-99.99,WeatherLink 5.4,2013-02-01 05:45:00,
2013-02-01 01:00:00,26.1,12.5,29.86,WSW,247,1.0,7.0,56,0.00,,,-99.99,WeatherLink 5.4,2013-02-01 06:00:00,
2013-02-01 01:15:00,26.3,12.7,29.86,WSW,247,0.0,5.0,56,0.00,,,-99.99,WeatherLink 5.4,2013-02-01 06:15:00,
2013-02-01 01:20:00,26.3,12.7,29.86,WSW,247,0.0,5.0,56,0.00,,,-99.99,WeatherLink 5.4,2013-02-01 06:20:00,
2013-02-01 01:30:00,26.1,11.7,29.86,North,-999,0.0,0.0,54,0.00,,,-99.99,WeatherLink 5.4,2013-02-01 06:30:00,
2013-02-01 01:45:00,26.0,11.6,29.87,SSW,202,0.0,2.0,54,0.00,,,-99.99,WeatherLink 5.4,2013-02-01 06:45:00,
2013-02-01 02:00:00,26.1,12.5,29.87,North,-999,0.0,0.0,56,0.00,,,-99.99,WeatherLink 5.4,2013-02-01 07:00:00,
2013-02-01 02:15:00,26.1,12.9,29.87,NNE,22,0.0,3.0,57,0.00,,,-99.99,WeatherLink 5.4,2013-02-01 07:15:00,
2013-02-01 02:30:00,26.0,12.8,29.86,SSE,157,0.0,3.0,57,0.00,,,-99.99,WeatherLink 5.4,2013-02-01 07:30:00,
2013-02-01 02:35:00,26.0,12.8,29.86,SSE,157,0.0,3.0,57,0.00,,,-99.99,WeatherLink 5.4,2013-02-01 07:35:00,
2013-02-01 02:45:00,26.1,13.3,29.86,South,180,0.0,2.0,58,0.00,,,-99.99,WeatherLink 5.4,2013-02-01 07:45:00,
2013-02-01 02:50:00,26.1,13.3,29.86,South,180,0.0,2.0,58,0.00,,,-99.99,WeatherLink 5.4,2013-02-01 07:50:00,
2013-02-01 03:00:00,26.4,13.2,29.85,South,180,0.0,2.0,57,0.00,,,-99.99,WeatherLink 5.4,2013-02-01 08:00:00,
2013-02-01 03:05:00,26.4,13.2,29.85,South,180,0.0,2.0,57,0.00,,,-99.99,WeatherLink 5.4,2013-02-01 08:05:00,
2013-02-01 03:15:00,26.6,14.2,29.86,SW,225,0.0,3.0,59,0.00,,,-99.99,WeatherLink 5.4,2013-02-01 08:15:00,
2013-02-01 03:30:00,26.7,14.3,29.85,North,-999,0.0,0.0,59,0.00,,,-99.99,WeatherLink 5.4,2013-02-01 08:30:00,
2013-02-01 03:35:00,26.7,14.3,29.85,North,-999,0.0,0.0,59,0.00,,,-99.99,WeatherLink 5.4,2013-02-01 08:35:00,
2013-02-01 03:45:00,27.0,14.9,29.85,North,-999,0.0,0.0,60,0.00,,,-99.99,WeatherLink 5.4,2013-02-01 08:45:00,
2013-02-01 04:00:00,27.3,14.5,29.85,WSW,247,0.0,5.0,58,0.00,,,-99.99,WeatherLink 5.4,2013-02-01 09:00:00,
2013-02-01 04:05:00,27.3,14.5,29.85,WSW,247,0.0,5.0,58,0.00,,,-99.99,WeatherLink 5.4,2013-02-01 09:05:00,
2013-02-01 04:15:00,27.6,15.1,29.85,West,270,0.0,3.0,59,0.00,,,-99.99,WeatherLink 5.4,2013-02-01 09:15:00,
2013-02-01 04:20:00,27.6,15.1,29.85,West,270,0.0,3.0,59,0.00,,,-99.99,WeatherLink 5.4,2013-02-01 09:20:00,
2013-02-01 04:30:00,27.8,15.3,29.86,West,270,1.0,7.0,59,0.00,,,-99.99,WeatherLink 5.4,2013-02-01 09:30:00,
2013-02-01 04:45:00,27.8,18.3,29.87,WNW,292,5.0,20.0,67,0.00,,,-99.99,WeatherLink 5.4,2013-02-01 09:45:00,
2013-02-01 04:50:00,27.8,18.3,29.87,WNW,292,5.0,20.0,67,0.00,,,-99.99,WeatherLink 5.4,2013-02-01 09:50:00,
2013-02-01 05:00:00,26.1,19.9,29.88,NW,315,7.0,17.0,77,0.00,,,-99.99,WeatherLink 5.4,2013-02-01 10:00:00,
2013-02-01 05:15:00,25.4,20.1,29.89,NW,315,4.0,11.0,80,0.00,,,-99.99,WeatherLink 5.4,2013-02-01 10:15:00,
2013-02-01 05:20:00,25.4,20.1,29.89,NW,315,4.0,11.0,80,0.00,,,-99.99,WeatherLink 5.4,2013-02-01 10:20:00,
2013-02-01 05:30:00,25.3,20.9,29.90,NNW,337,4.0,14.0,83,0.00,,,-99.99,WeatherLink 5.4,2013-02-01 10:30:00,
2013-02-01 05:45:00,24.7,20.8,29.92,NW,315,5.0,15.0,85,0.00,,,-99.99,WeatherLink 5.4,2013-02-01 10:45:00,
2013-02-01 06:00:00,24.4,20.3,29.92,NW,315,3.0,10.0,84,0.00,,,-99.99,WeatherLink 5.4,2013-02-01 11:00:00,
2013-02-01 06:15:00,24.2,19.2,29.92,West,270,1.0,5.0,81,0.01,,,-99.99,WeatherLink 5.4,2013-02-01 11:15:00,
2013-02-01 06:30:00,24.2,18.3,29.92,West,270,0.0,3.0,78,0.01,,,-99.99,WeatherLink 5.4,2013-02-01 11:30:00,
2013-02-01 06:45:00,24.1,17.3,29.93,West,270,2.0,6.0,75,0.01,,,-99.99,WeatherLink 5.4,2013-02-01 11:45:00,
2013-02-01 06:50:00,24.1,17.3,29.93,West,270,2.0,6.0,75,0.01,,,-99.99,WeatherLink 5.4,2013-02-01 11:50:00,
2013-02-01 07:00:00,24.7,15.3,29.94,NW,315,6.0,17.0,67,0.01,,,-99.99,WeatherLink 5.4,2013-02-01 12:00:00,
2013-02-01 07:15:00,24.5,12.6,29.95,West,270,9.0,25.0,60,0.00,,,-99.99,WeatherLink 5.4,2013-02-01 12:15:00,
2013-02-01 07:30:00,24.1,13.3,29.97,NW,315,7.0,19.0,63,0.00,,,-99.99,WeatherLink 5.4,2013-02-01 12:30:00,
2013-02-01 07:45:00,23.3,10.7,29.98,NW,315,10.0,24.0,58,0.00,,,-99.99,WeatherLink 5.4,2013-02-01 12:45:00,
2013-02-01 08:00:00,22.9,10.3,30.00,NW,315,12.0,27.0,58,0.00,,,-99.99,WeatherLink 5.4,2013-02-01 13:00:00,
2013-02-01 08:05:00,22.9,10.3,30.00,NW,315,12.0,27.0,58,0.00,,,-99.99,WeatherLink 5.4,2013-02-01 13:05:00,
2013-02-01 08:15:00,22.2,8.9,30.03,NW,315,9.0,21.0,56,0.00,,,-99.99,WeatherLink 5.4,2013-02-01 13:15:00,
2013-02-01 08:30:00,22.1,7.6,30.04,NW,315,10.0,24.0,53,0.00,,,-99.99,WeatherLink 5.4,2013-02-01 13:30:00,
2013-02-01 08:45:00,22.1,7.1,30.05,West,270,9.0,19.0,52,0.00,,,-99.99,WeatherLink 5.4,2013-02-01 13:45:00,
2013-02-01 09:00:00,22.1,5.8,30.06,NW,315,12.0,28.0,49,0.00,,,-99.99,WeatherLink 5.4,2013-02-01 14:00:00,
2013-02-01 09:15:00,22.1,6.3,30.07,NW,315,13.0,30.0,50,0.00,,,-99.99,WeatherLink 5.4,2013-02-01 14:15:00,
2013-02-01 09:30:00,22.2,5.9,30.08,NW,315,11.0,24.0,49,0.00,,,-99.99,WeatherLink 5.4,2013-02-01 14:30:00,
2013-02-01 09:35:00,22.2,5.9,30.08,NW,315,11.0,24.0,49,0.00,,,-99.99,WeatherLink 5.4,2013-02-01 14:35:00,
2013-02-01 09:45:00,22.1,5.8,30.09,NW,315,12.0,26.0,49,0.00,,,-99.99,WeatherLink 5.4,2013-02-01 14:45:00,
2013-02-01 09:50:00,22.1,5.8,30.09,NW,315,12.0,26.0,49,0.00,,,-99.99,WeatherLink 5.4,2013-02-01 14:50:00,
2013-02-01 10:00:00,22.5,5.7,30.10,NW,315,11.0,24.0,48,0.00,,,-99.99,WeatherLink 5.4,2013-02-01 15:00:00,
2013-02-01 10:05:00,22.5,5.7,30.10,NW,315,11.0,24.0,48,0.00,,,-99.99,WeatherLink 5.4,2013-02-01 15:05:00,
2013-02-01 10:15:00,23.3,6.5,30.10,West,270,12.0,26.0,48,0.00,,,-99.99,WeatherLink 5.4,2013-02-01 15:15:00,
2013-02-01 10:30:00,22.9,5.6,30.11,NW,315,12.0,25.0,47,0.00,,,-99.99,WeatherLink 5.4,2013-02-01 15:30:00,
2013-02-01 10:45:00,22.5,6.2,30.13,WNW,292,12.0,29.0,49,0.00,,,-99.99,WeatherLink 5.4,2013-02-01 15:45:00,
2013-02-01 10:50:00,22.5,6.2,30.13,WNW,292,12.0,29.0,49,0.00,,,-99.99,WeatherLink 5.4,2013-02-01 15:50:00,
2013-02-01 11:00:00,23.2,5.4,30.13,NW,315,13.0,26.0,46,0.00,,,-99.99,WeatherLink 5.4,2013-02-01 16:00:00,
2013-02-01 11:05:00,23.2,5.4,30.13,NW,315,13.0,26.0,46,0.00,,,-99.99,WeatherLink 5.4,2013-02-01 16:05:00,
2013-02-01 11:15:00,23.3,5.5,30.13,NW,315,11.0,20.0,46,0.00,,,-99.99,WeatherLink 5.4,2013-02-01 16:15:00,
2013-02-01 11:30:00,23.8,6.5,30.14,WNW,292,11.0,26.0,47,0.00,,,-99.99,WeatherLink 5.4,2013-02-01 16:30:00,
2013-02-01 11:35:00,23.8,6.5,30.14,WNW,292,11.0,26.0,47,0.00,,,-99.99,WeatherLink 5.4,2013-02-01 16:35:00,
2013-02-01 11:45:00,24.1,5.3,30.15,West,270,10.0,22.0,44,0.00,,,-99.99,WeatherLink 5.4,2013-02-01 16:45:00,
2013-02-01 12:00:00,23.9,5.1,30.15,West,270,12.0,24.0,44,0.00,,,-99.99,WeatherLink 5.4,2013-02-01 17:00:00,
2013-02-01 12:15:00,23.8,6.0,30.15,West,270,11.0,25.0,46,0.00,,,-99.99,WeatherLink 5.4,2013-02-01 17:15:00,
2013-02-01 12:30:00,24.1,4.3,30.16,West,270,12.0,22.0,42,0.00,,,-99.99,WeatherLink 5.4,2013-02-01 17:30:00,
2013-02-01 12:45:00,24.2,4.4,30.15,NW,315,11.0,26.0,42,0.00,,,-99.99,WeatherLink 5.4,2013-02-01 17:45:00,
2013-02-01 13:00:00,24.5,5.2,30.16,West,270,12.0,27.0,43,0.00,,,-99.99,WeatherLink 5.4,2013-02-01 18:00:00,
2013-02-01 13:05:00,24.5,5.2,30.16,West,270,12.0,27.0,43,0.00,,,-99.99,WeatherLink 5.4,2013-02-01 18:05:00,
2013-02-01 13:15:00,24.4,5.6,30.16,West,270,12.0,26.0,44,0.00,,,-99.99,WeatherLink 5.4,2013-02-01 18:15:00,
2013-02-01 13:30:00,24.1,3.8,30.17,West,270,12.0,29.0,41,0.00,,,-99.99,WeatherLink 5.4,2013-02-01 18:30:00,
2013-02-01 13:35:00,24.1,3.8,30.17,West,270,12.0,29.0,41,0.00,,,-99.99,WeatherLink 5.4,2013-02-01 18:35:00,
2013-02-01 13:45:00,24.2,3.9,30.17,West,270,12.0,24.0,41,0.00,,,-99.99,WeatherLink 5.4,2013-02-01 18:45:00,
2013-02-01 14:00:00,24.4,2.9,30.17,West,270,12.0,22.0,39,0.00,,,-99.99,WeatherLink 5.4,2013-02-01 19:00:00,
2013-02-01 14:05:00,24.4,2.9,30.17,West,270,12.0,22.0,39,0.00,,,-99.99,WeatherLink 5.4,2013-02-01 19:05:00,
2013-02-01 14:15:00,23.8,3.0,30.18,WSW,247,13.0,26.0,40,0.00,,,-99.99,WeatherLink 5.4,2013-02-01 19:15:00,
2013-02-01 14:20:00,23.8,3.0,30.18,WSW,247,13.0,26.0,40,0.00,,,-99.99,WeatherLink 5.4,2013-02-01 19:20:00,
2013-02-01 14:30:00,23.6,3.3,30.19,WNW,292,11.0,26.0,41,0.00,,,-99.99,WeatherLink 5.4,2013-02-01 19:30:00,
2013-02-01 14:45:00,23.6,3.3,30.19,West,270,10.0,24.0,41,0.00,,,-99.99,WeatherLink 5.4,2013-02-01 19:45:00,
2013-02-01 15:00:00,23.8,3.5,30.19,West,270,10.0,22.0,41,0.00,,,-99.99,WeatherLink 5.4,2013-02-01 20:00:00,
2013-02-01 15:05:00,23.8,3.5,30.19,West,270,10.0,22.0,41,0.00,,,-99.99,WeatherLink 5.4,2013-02-01 20:05:00,
2013-02-01 15:15:00,23.3,3.0,30.21,West,270,11.0,22.0,41,0.00,,,-99.99,WeatherLink 5.4,2013-02-01 20:15:00,
2013-02-01 15:20:00,23.3,3.0,30.21,West,270,11.0,22.0,41,0.00,,,-99.99,WeatherLink 5.4,2013-02-01 20:20:00,
2013-02-01 15:30:00,22.9,1.6,30.21,WNW,292,10.0,24.0,39,0.00,,,-99.99,WeatherLink 5.4,2013-02-01 20:30:00,
2013-02-01 15:35:00,22.9,1.6,30.21,WNW,292,10.0,24.0,39,0.00,,,-99.99,WeatherLink 5.4,2013-02-01 20:35:00,
2013-02-01 15:45:00,22.7,2.0,30.22,WNW,292,11.0,25.0,40,0.00,,,-99.99,WeatherLink 5.4,2013-02-01 20:45:00,
2013-02-01 16:00:00,22.5,2.8,30.24,WNW,292,8.0,19.0,42,0.00,,,-99.99,WeatherLink 5.4,2013-02-01 21:00:00,
2013-02-01 16:05:00,22.5,2.8,30.24,WNW,292,8.0,19.0,42,0.00,,,-99.99,WeatherLink 5.4,2013-02-01 21:05:00,
2013-02-01 16:15:00,22.4,3.2,30.24,West,270,8.0,20.0,43,0.00,,,-99.99,WeatherLink 5.4,2013-02-01 21:15:00,
2013-02-01 16:30:00,22.2,2.6,30.25,West,270,7.0,17.0,42,0.00,,,-99.99,WeatherLink 5.4,2013-02-01 21:30:00,
2013-02-01 16:45:00,22.1,3.0,30.26,NW,315,8.0,20.0,43,0.00,,,-99.99,WeatherLink 5.4,2013-02-01 21:45:00,
2013-02-01 16:50:00,22.1,3.0,30.26,NW,315,8.0,20.0,43,0.00,,,-99.99,WeatherLink 5.4,2013-02-01 21:50:00,
2013-02-01 17:00:00,21.6,1.0,30.26,West,270,8.0,21.0,40,0.00,,,-99.99,WeatherLink 5.4,2013-02-01 22:00:00,
2013-02-01 17:15:00,21.1,2.1,30.27,WNW,292,6.0,20.0,43,0.00,,,-99.99,WeatherLink 5.4,2013-02-01 22:15:00,
2013-02-01 17:30:00,20.6,1.6,30.28,West,270,5.0,17.0,43,0.00,,,-99.99,WeatherLink 5.4,2013-02-01 22:30:00,
2013-02-01 17:45:00,20.3,1.3,30.29,West,270,6.0,16.0,43,0.00,,,-99.99,WeatherLink 5.4,2013-02-01 22:45:00,
2013-02-01 17:50:00,20.3,1.3,30.29,West,270,6.0,16.0,43,0.00,,,-99.99,WeatherLink 5.4,2013-02-01 22:50:00,
2013-02-01 18:00:00,20.0,1.1,30.30,West,270,6.0,14.0,43,0.00,,,-99.99,WeatherLink 5.4,2013-02-01 23:00:00,
2013-02-01 18:05:00,20.0,1.1,30.30,West,270,6.0,14.0,43,0.00,,,-99.99,WeatherLink 5.4,2013-02-01 23:05:00,
2013-02-01 18:15:00,19.9,1.5,30.31,West,270,5.0,13.0,44,0.00,,,-99.99,WeatherLink 5.4,2013-02-01 23:15:00,
2013-02-01 18:20:00,19.9,1.5,30.31,West,270,5.0,13.0,44,0.00,,,-99.99,WeatherLink 5.4,2013-02-01 23:20:00,
2013-02-01 18:30:00,19.9,1.5,30.32,West,270,5.0,16.0,44,0.00,,,-99.99,WeatherLink 5.4,2013-02-01 23:30:00,
2013-02-01 18:45:00,19.9,1.9,30.32,WSW,247,5.0,10.0,45,0.00,,,-99.99,WeatherLink 5.4,2013-02-01 23:45:00,
2013-02-01 19:00:00,19.5,0.6,30.33,West,270,9.0,18.0,43,0.00,,,-99.99,WeatherLink 5.4,2013-02-02 00:00:00,
2013-02-01 19:05:00,19.5,0.6,30.33,West,270,9.0,18.0,43,0.00,,,-99.99,WeatherLink 5.4,2013-02-02 00:05:00,
2013-02-01 19:15:00,19.4,1.0,30.34,West,270,9.0,17.0,44,0.00,,,-99.99,WeatherLink 5.4,2013-02-02 00:15:00,
2013-02-01 19:20:00,19.4,1.0,30.34,West,270,9.0,17.0,44,0.00,,,-99.99,WeatherLink 5.4,2013-02-02 00:20:00,
2013-02-01 19:30:00,19.1,0.7,30.34,West,270,7.0,16.0,44,0.00,,,-99.99,WeatherLink 5.4,2013-02-02 00:30:00,
2013-02-01 19:35:00,19.1,0.7,30.34,West,270,7.0,16.0,44,0.00,,,-99.99,WeatherLink 5.4,2013-02-02 00:35:00,
2013-02-01 19:45:00,19.1,0.2,30.34,West,270,9.0,17.0,43,0.00,,,-99.99,WeatherLink 5.4,2013-02-02 00:45:00,
2013-02-01 20:00:00,18.8,0.9,30.34,West,270,8.0,17.0,45,0.00,,,-99.99,WeatherLink 5.4,2013-02-02 01:00:00,
2013-02-01 20:15:00,18.6,0.7,30.35,WSW,247,8.0,16.0,45,0.00,,,-99.99,WeatherLink 5.4,2013-02-02 01:15:00,
2013-02-01 20:30:00,18.4,0.6,30.36,West,270,8.0,16.0,45,0.00,,,-99.99,WeatherLink 5.4,2013-02-02 01:30:00,
2013-02-01 20:35:00,18.4,0.6,30.36,West,270,8.0,16.0,45,0.00,,,-99.99,WeatherLink 5.4,2013-02-02 01:35:00,
2013-02-01 20:45:00,18.3,0.5,30.36,West,270,6.0,14.0,45,0.00,,,-99.99,WeatherLink 5.4,2013-02-02 01:45:00,
2013-02-01 20:50:00,18.3,0.5,30.36,West,270,6.0,14.0,45,0.00,,,-99.99,WeatherLink 5.4,2013-02-02 01:50:00,
2013-02-01 21:00:00,18.1,-0.2,30.37,West,270,4.0,14.0,44,0.00,,,-99.99,WeatherLink 5.4,2013-02-02 02:00:00,
2013-02-01 21:05:00,18.1,-0.2,30.37,West,270,4.0,14.0,44,0.00,,,-99.99,WeatherLink 5.4,2013-02-02 02:05:00,
2013-02-01 21:15:00,18.1,0.8,30.37,West,270,5.0,12.0,46,0.00,,,-99.99,WeatherLink 5.4,2013-02-02 02:15:00,
2013-02-01 21:20:00,18.1,0.8,30.37,West,270,5.0,12.0,46,0.00,,,-99.99,WeatherLink 5.4,2013-02-02 02:20:00,
2013-02-01 21:30:00,18.0,0.7,30.37,West,270,5.0,13.0,46,0.00,,,-99.99,WeatherLink 5.4,2013-02-02 02:30:00,
2013-02-01 21:45:00,17.8,0.5,30.37,West,270,8.0,18.0,46,0.00,,,-99.99,WeatherLink 5.4,2013-02-02 02:45:00,
2013-02-01 22:00:00,17.7,0.9,30.37,West,270,6.0,14.0,47,0.00,,,-99.99,WeatherLink 5.4,2013-02-02 03:00:00,
2013-02-01 22:15:00,17.3,0.9,30.38,WSW,247,4.0,14.0,48,0.00,,,-99.99,WeatherLink 5.4,2013-02-02 03:15:00,
2013-02-01 22:20:00,17.3,0.9,30.38,WSW,247,4.0,14.0,48,0.00,,,-99.99,WeatherLink 5.4,2013-02-02 03:20:00,
2013-02-01 22:30:00,17.2,0.8,30.39,West,270,3.0,7.0,48,0.00,,,-99.99,WeatherLink 5.4,2013-02-02 03:30:00,
2013-02-01 22:45:00,17.0,1.1,30.39,West,270,1.0,8.0,49,0.00,,,-99.99,WeatherLink 5.4,2013-02-02 03:45:00,
2013-02-01 23:00:00,16.9,1.4,30.39,West,270,3.0,8.0,50,0.00,,,-99.99,WeatherLink 5.4,2013-02-02 04:00:00,
2013-02-01 23:05:00,16.9,1.4,30.39,West,270,3.0,8.0,50,0.00,,,-99.99,WeatherLink 5.4,2013-02-02 04:05:00,
2013-02-01 23:15:00,16.7,1.3,30.39,West,270,3.0,8.0,50,0.00,,,-99.99,WeatherLink 5.4,2013-02-02 04:15:00,
2013-02-01 23:20:00,16.7,1.3,30.39,West,270,3.0,8.0,50,0.00,,,-99.99,WeatherLink 5.4,2013-02-02 04:20:00,
2013-02-01 23:30:00,16.5,1.9,30.39,West,270,2.0,7.0,52,0.00,,,-99.99,WeatherLink 5.4,2013-02-02 04:30:00,
2013-02-01 23:45:00,16.4,1.8,30.39,West,270,3.0,8.0,52,0.00,,,-99.99,WeatherLink 5.4,2013-02-02 04:45:00,
2013-02-01 23:50:00,16.4,1.8,30.39,West,270,3.0,8.0,52,0.00,,,-99.99,WeatherLink 5.4,2013-02-02 04:50:00,